Time,TemperatureF,DewpointF,PressureIn,WindDirection,WindDirectionDegrees,WindSpeedMPH,WindSpeedGustMPH,Humidity,HourlyPrecipIn,Conditions,Clouds,dailyrainin,SolarRadiationWatts/m^2,SoftwareType,DateUTC
2013-08-09 00:01:00,79.5,76.6,29.85,SSE,153,4.6,4.6,91,0.00,CLR,SKC,0.00,0.0,WeatherDisplay:10.37,2013-08-09 05:01:00,
2013-08-09 00:06:00,79.5,76.6,29.85,SSE,156,3.5,3.5,91,0.00,CLR,SKC,0.00,0.0,WeatherDisplay:10.37,2013-08-09 05:06:00,
2013-08-09 00:11:00,79.4,76.5,29.86,SSE,153,4.0,4.0,91,0.00,CLR,SKC,0.00,0.0,WeatherDisplay:10.37,2013-08-09 05:11:00,
2013-08-09 00:16:00,79.3,76.4,29.86,SE,135,5.0,5.0,91,0.00,CLR,SKC,0.00,0.0,WeatherDisplay:10.37,2013-08-09 05:16:00,
2013-08-09 00:21:00,79.3,76.8,29.86,SSE,153,3.5,3.5,92,0.00,CLR,SKC,0.00,0.0,WeatherDisplay:10.37,2013-08-09 05:21:00,
2013-08-09 00:26:00,79.3,76.8,29.87,SSE,147,2.3,2.3,92,0.00,CLR,SKC,0.00,0.0,WeatherDisplay:10.37,2013-08-09 05:26:00,
2013-08-09 00:31:00,79.2,76.7,29.87,SSE,163,2.0,2.0,92,0.00,CLR,SKC,0.00,0.0,WeatherDisplay:10.37,2013-08-09 05:31:00,
2013-08-09 00:36:00,79.2,76.7,29.87,South,170,0.0,0.4,92,0.00,CLR,SKC,0.00,0.0,WeatherDisplay:10.37,2013-08-09 05:36:00,
2013-08-09 00:41:00,79.1,76.6,29.87,South,170,1.2,1.2,92,0.00,CLR,SKC,0.00,0.0,WeatherDisplay:10.37,2013-08-09 05:41:00,
2013-08-09 00:46:00,79.1,76.6,29.87,SSE,161,1.2,0.0,92,0.00,CLR,SKC,0.00,0.0,WeatherDisplay:10.37,2013-08-09 05:46:00,
2013-08-09 00:51:00,79.1,76.6,29.87,SSE,161,2.3,2.3,92,0.00,CLR,SKC,0.00,0.0,WeatherDisplay:10.37,2013-08-09 05:51:00,
2013-08-09 00:56:00,79.1,76.6,29.87,SE,132,0.0,0.0,92,0.00,CLR,SKC,0.00,0.0,WeatherDisplay:10.37,2013-08-09 05:56:00,
2013-08-09 01:01:00,79.1,76.6,29.87,SSE,159,2.3,2.3,92,0.00,CLR,SKC,0.00,0.0,WeatherDisplay:10.37,2013-08-09 06:01:00,
2013-08-09 01:06:00,79.0,76.5,29.87,SSE,161,2.3,2.3,92,0.00,CLR,SKC,0.00,0.0,WeatherDisplay:10.37,2013-08-09 06:06:00,
2013-08-09 01:11:00,79.0,76.5,29.87,ESE,121,3.5,3.5,92,0.00,CLR,SKC,0.00,0.0,WeatherDisplay:10.37,2013-08-09 06:11:00,
2013-08-09 01:16:00,78.9,76.4,29.87,SSE,157,3.5,3.5,92,0.00,CLR,SKC,0.00,0.0,WeatherDisplay:10.37,2013-08-09 06:16:00,
2013-08-09 01:21:00,78.9,76.7,29.87,SE,126,3.5,3.5,93,0.00,CLR,SKC,0.00,0.0,WeatherDisplay:10.37,2013-08-09 06:21:00,
2013-08-09 01:26:00,78.9,76.7,29.86,SE,145,2.3,2.3,93,0.00,CLR,SKC,0.00,0.0,WeatherDisplay:10.37,2013-08-09 06:26:00,
2013-08-09 01:31:00,78.8,76.6,29.86,SE,128,3.0,3.0,93,0.00,CLR,SKC,0.00,0.0,WeatherDisplay:10.37,2013-08-09 06:31:00,
2013-08-09 01:36:00,78.8,76.6,29.86,SE,131,3.5,3.5,93,0.00,CLR,SKC,0.00,0.0,WeatherDisplay:10.37,2013-08-09 06:36:00,
2013-08-09 01:41:00,78.8,76.6,29.86,SE,132,3.5,3.5,93,0.00,CLR,SKC,0.00,0.0,WeatherDisplay:10.37,2013-08-09 06:41:00,
2013-08-09 01:46:00,78.7,76.5,29.86,SSE,150,3.5,3.5,93,0.00,CLR,SKC,0.00,0.0,WeatherDisplay:10.37,2013-08-09 06:46:00,
2013-08-09 01:51:00,78.7,76.5,29.86,SE,132,4.6,4.6,93,0.00,CLR,SKC,0.00,0.0,WeatherDisplay:10.37,2013-08-09 06:51:00,
2013-08-09 01:56:00,78.7,76.5,29.86,South,169,3.5,3.5,93,0.00,CLR,SKC,0.00,0.0,WeatherDisplay:10.37,2013-08-09 06:56:00,
2013-08-09 02:01:00,78.7,76.5,29.86,ESE,123,3.5,3.5,93,0.00,CLR,SKC,0.00,0.0,WeatherDisplay:10.37,2013-08-09 07:01:00,
2013-08-09 02:06:00,78.7,76.5,29.86,SE,130,4.6,4.6,93,0.00,CLR,SKC,0.00,0.0,WeatherDisplay:10.37,2013-08-09 07:06:00,
2013-08-09 02:11:00,78.7,76.5,29.86,ESE,122,5.8,5.8,93,0.00,CLR,SKC,0.00,0.0,WeatherDisplay:10.37,2013-08-09 07:11:00,
2013-08-09 02:16:00,78.7,76.5,29.86,SSE,164,4.6,4.6,93,0.00,CLR,SKC,0.00,0.0,WeatherDisplay:10.37,2013-08-09 07:16:00,
2013-08-09 02:21:00,78.7,76.5,29.86,SE,130,5.0,5.0,93,0.00,CLR,SKC,0.00,0.0,WeatherDisplay:10.37,2013-08-09 07:21:00,
2013-08-09 02:26:00,78.7,76.5,29.86,SSE,150,3.5,3.5,93,0.00,CLR,SKC,0.00,0.0,WeatherDisplay:10.37,2013-08-09 07:26:00,
2013-08-09 02:31:00,78.7,76.5,29.86,SE,146,3.5,3.5,93,0.00,CLR,SKC,0.00,0.0,WeatherDisplay:10.37,2013-08-09 07:31:00,
2013-08-09 02:36:00,78.7,76.5,29.86,SSE,159,3.5,3.5,93,0.00,CLR,SKC,0.00,0.0,WeatherDisplay:10.37,2013-08-09 07:36:00,
2013-08-09 02:41:00,78.7,76.5,29.86,SSE,163,3.5,3.5,93,0.00,CLR,SKC,0.00,0.0,WeatherDisplay:10.37,2013-08-09 07:41:00,
2013-08-09 02:46:00,78.8,76.6,29.86,SSE,167,2.3,2.3,93,0.00,CLR,SKC,0.00,0.0,WeatherDisplay:10.37,2013-08-09 07:46:00,
2013-08-09 02:51:00,78.8,76.6,29.86,SSE,157,2.3,2.3,93,0.00,CLR,SKC,0.00,0.0,WeatherDisplay:10.37,2013-08-09 07:51:00,
2013-08-09 02:56:00,78.8,76.6,29.86,SE,139,2.3,2.3,93,0.00,CLR,SKC,0.00,0.0,WeatherDisplay:10.37,2013-08-09 07:56:00,
2013-08-09 03:01:00,78.8,76.6,29.86,SSE,163,4.0,4.0,93,0.00,CLR,SKC,0.00,0.0,WeatherDisplay:10.37,2013-08-09 08:01:00,
2013-08-09 03:06:00,78.8,76.6,29.86,SE,136,3.5,3.5,93,0.00,CLR,SKC,0.00,0.0,WeatherDisplay:10.37,2013-08-09 08:06:00,
2013-08-09 03:11:00,78.7,76.5,29.85,SSE,167,4.6,4.6,93,0.00,CLR,SKC,0.00,0.0,WeatherDisplay:10.37,2013-08-09 08:11:00,
2013-08-09 03:16:00,78.7,76.5,29.85,SSE,157,1.2,1.2,93,0.00,CLR,SKC,0.00,0.0,WeatherDisplay:10.37,2013-08-09 08:16:00,
2013-08-09 03:21:00,78.8,76.6,29.85,SE,146,3.5,3.5,93,0.00,CLR,SKC,0.00,0.0,WeatherDisplay:10.37,2013-08-09 08:21:00,
2013-08-09 03:26:00,78.7,76.5,29.85,South,169,3.5,3.5,93,0.00,CLR,SKC,0.00,0.0,WeatherDisplay:10.37,2013-08-09 08:26:00,
2013-08-09 03:31:00,78.7,76.5,29.85,SSE,160,3.5,3.5,93,0.00,CLR,SKC,0.00,0.0,WeatherDisplay:10.37,2013-08-09 08:31:00,
2013-08-09 03:36:00,78.7,76.5,29.85,South,177,3.5,3.5,93,0.00,CLR,SKC,0.00,0.0,WeatherDisplay:10.37,2013-08-09 08:36:00,
2013-08-09 03:41:00,78.7,76.8,29.85,South,173,3.5,3.5,94,0.00,CLR,SKC,0.00,0.0,WeatherDisplay:10.37,2013-08-09 08:41:00,
2013-08-09 03:46:00,78.6,76.7,29.85,SSE,150,3.5,3.5,94,0.00,CLR,SKC,0.00,0.0,WeatherDisplay:10.37,2013-08-09 08:46:00,
2013-08-09 03:51:00,78.6,76.7,29.85,SSE,149,2.3,2.3,94,0.00,CLR,SKC,0.00,0.0,WeatherDisplay:10.37,2013-08-09 08:51:00,
2013-08-09 03:56:00,78.6,76.7,29.85,South,180,3.5,3.5,94,0.00,CLR,SKC,0.00,0.0,WeatherDisplay:10.37,2013-08-09 08:56:00,
2013-08-09 04:01:00,78.6,76.7,29.85,SSE,159,1.2,1.2,94,0.00,CLR,SKC,0.00,0.0,WeatherDisplay:10.37,2013-08-09 09:01:00,
2013-08-09 04:06:00,78.6,76.7,29.85,South,182,3.5,3.5,94,0.00,CLR,SKC,0.00,0.0,WeatherDisplay:10.37,2013-08-09 09:06:00,
2013-08-09 04:11:00,78.5,76.6,29.85,South,170,2.3,2.3,94,0.00,CLR,SKC,0.00,0.0,WeatherDisplay:10.37,2013-08-09 09:11:00,
2013-08-09 04:16:00,78.4,76.5,29.85,South,176,3.5,3.5,94,0.00,CLR,SKC,0.00,0.0,WeatherDisplay:10.37,2013-08-09 09:16:00,
2013-08-09 04:21:00,78.4,76.5,29.85,SSE,166,3.5,3.5,94,0.00,CLR,SKC,0.00,0.0,WeatherDisplay:10.37,2013-08-09 09:21:00,
2013-08-09 04:26:00,78.4,76.5,29.85,SSE,168,3.5,3.5,94,0.00,CLR,SKC,0.00,0.0,WeatherDisplay:10.37,2013-08-09 09:26:00,
2013-08-09 04:31:00,78.4,76.5,29.85,SSE,163,1.2,1.2,94,0.00,CLR,SKC,0.00,0.0,WeatherDisplay:10.37,2013-08-09 09:31:00,
2013-08-09 04:36:00,78.4,76.5,29.85,SSE,163,1.2,1.2,94,0.00,CLR,SKC,0.00,0.0,WeatherDisplay:10.37,2013-08-09 09:36:00,
2013-08-09 04:41:00,78.4,76.5,29.86,South,178,0.0,0.0,94,0.00,CLR,SKC,0.00,0.0,WeatherDisplay:10.37,2013-08-09 09:41:00,
2013-08-09 04:46:00,78.4,76.5,29.86,South,178,1.2,1.2,94,0.00,CLR,SKC,0.00,0.0,WeatherDisplay:10.37,2013-08-09 09:46:00,
2013-08-09 04:51:00,78.3,76.4,29.86,South,178,2.3,2.3,94,0.00,CLR,SKC,0.00,0.0,WeatherDisplay:10.37,2013-08-09 09:51:00,
2013-08-09 04:56:00,78.3,76.4,29.85,South,178,0.0,0.0,94,0.00,CLR,SKC,0.00,0.0,WeatherDisplay:10.37,2013-08-09 09:56:00,
2013-08-09 05:01:00,78.3,76.4,29.85,South,178,1.0,1.0,94,0.00,CLR,SKC,0.00,0.0,WeatherDisplay:10.37,2013-08-09 10:01:00,
2013-08-09 05:06:00,78.3,76.4,29.85,South,176,3.5,3.5,94,0.00,CLR,SKC,0.00,0.0,WeatherDisplay:10.37,2013-08-09 10:06:00,
2013-08-09 05:11:00,78.3,76.4,29.85,SSE,168,0.0,0.0,94,0.00,CLR,SKC,0.00,0.0,WeatherDisplay:10.37,2013-08-09 10:11:00,
2013-08-09 05:16:00,78.3,76.4,29.85,South,180,1.0,1.0,94,0.00,CLR,SKC,0.00,0.0,WeatherDisplay:10.37,2013-08-09 10:16:00,
2013-08-09 05:21:00,78.2,76.3,29.85,South,180,1.2,1.2,94,0.00,CLR,SKC,0.00,0.0,WeatherDisplay:10.37,2013-08-09 10:21:00,
2013-08-09 05:26:00,78.2,76.3,29.85,SSE,164,1.2,1.2,94,0.00,CLR,SKC,0.00,0.0,WeatherDisplay:10.37,2013-08-09 10:26:00,
2013-08-09 05:31:00,78.2,76.6,29.85,SSE,157,2.3,2.3,95,0.00,CLR,SKC,0.00,0.0,WeatherDisplay:10.37,2013-08-09 10:31:00,
2013-08-09 05:36:00,78.2,76.6,29.85,SSE,166,1.2,1.2,95,0.00,CLR,SKC,0.00,0.0,WeatherDisplay:10.37,2013-08-09 10:36:00,
2013-08-09 05:41:00,78.2,76.6,29.85,SSE,155,3.5,3.5,95,0.00,CLR,SKC,0.00,0.0,WeatherDisplay:10.37,2013-08-09 10:41:00,
2013-08-09 05:46:00,78.2,76.6,29.85,SSE,161,1.2,1.2,95,0.00,CLR,SKC,0.00,0.0,WeatherDisplay:10.37,2013-08-09 10:46:00,
2013-08-09 05:51:00,78.1,76.6,29.85,SSE,161,4.6,0.0,95,0.00,CLR,SKC,0.00,0.0,WeatherDisplay:10.37,2013-08-09 10:51:00,
2013-08-09 05:56:00,78.1,76.6,29.85,SSE,162,3.5,3.5,95,0.00,OVC,SKC,0.00,0.0,WeatherDisplay:10.37,2013-08-09 10:56:00,
2013-08-09 06:01:00,78.1,76.6,29.85,SSE,163,3.5,3.5,95,0.00,CLR,SKC,0.00,0.0,WeatherDisplay:10.37,2013-08-09 11:01:00,
2013-08-09 06:06:00,78.1,76.6,29.85,South,169,3.0,3.0,95,0.00,CLR,SKC,0.00,0.0,WeatherDisplay:10.37,2013-08-09 11:06:00,
2013-08-09 06:11:00,78.1,76.6,29.85,SSE,167,2.0,2.0,95,0.00,CLR,SKC,0.00,0.0,WeatherDisplay:10.37,2013-08-09 11:11:00,
2013-08-09 06:16:00,78.1,76.6,29.85,SSE,167,1.2,1.2,95,0.00,CLR,SKC,0.00,0.0,WeatherDisplay:10.37,2013-08-09 11:16:00,
2013-08-09 06:21:00,78.1,76.6,29.85,South,173,1.2,1.2,95,0.00,CLR,SKC,0.00,0.0,WeatherDisplay:10.37,2013-08-09 11:21:00,
2013-08-09 06:26:00,78.2,76.6,29.85,South,173,1.2,0.0,95,0.00,CLR,SKC,0.00,0.0,WeatherDisplay:10.37,2013-08-09 11:26:00,
2013-08-09 06:31:00,78.3,76.7,29.85,South,174,1.2,0.0,95,0.00,CLR,SKC,0.00,0.0,WeatherDisplay:10.37,2013-08-09 11:31:00,
2013-08-09 06:36:00,78.1,76.6,29.85,South,174,0.0,0.4,95,0.00,CLR,SKC,0.00,0.0,WeatherDisplay:10.37,2013-08-09 11:36:00,
2013-08-09 06:41:00,78.0,76.5,29.85,South,175,2.3,2.3,95,0.00,CLR,SKC,0.00,0.0,WeatherDisplay:10.37,2013-08-09 11:41:00,
2013-08-09 06:46:00,77.9,76.4,29.85,South,172,2.3,2.3,95,0.00,CLR,SKC,0.00,0.0,WeatherDisplay:10.37,2013-08-09 11:46:00,
2013-08-09 06:51:00,77.9,76.4,29.85,SSW,196,0.0,0.1,95,0.00,CLR,SKC,0.00,0.0,WeatherDisplay:10.37,2013-08-09 11:51:00,
2013-08-09 06:56:00,78.0,76.5,29.85,SSW,197,1.2,1.2,95,0.00,CLR,SKC,0.00,5.0,WeatherDisplay:10.37,2013-08-09 11:56:00,
2013-08-09 07:01:00,78.1,76.6,29.85,SSW,197,0.0,0.0,95,0.00,CLR,SKC,0.00,7.0,WeatherDisplay:10.37,2013-08-09 12:01:00,
2013-08-09 07:06:00,78.0,76.5,29.85,SSE,161,2.3,2.3,95,0.00,CLR,SKC,0.00,14.0,WeatherDisplay:10.37,2013-08-09 12:06:00,
2013-08-09 07:11:00,77.9,76.4,29.85,South,175,1.2,1.2,95,0.00,CLR,SKC,0.00,21.0,WeatherDisplay:10.37,2013-08-09 12:11:00,
2013-08-09 07:16:00,78.0,76.5,29.85,SW,222,3.5,3.5,95,0.00,CLR,SKC,0.00,32.0,WeatherDisplay:10.37,2013-08-09 12:16:00,
2013-08-09 07:21:00,78.1,76.6,29.85,SW,219,1.2,1.2,95,0.00,CLR,SKC,0.00,46.0,WeatherDisplay:10.37,2013-08-09 12:21:00,
2013-08-09 07:26:00,78.2,76.6,29.86,SW,219,1.2,0.0,95,0.00,CLR,SKC,0.00,62.0,WeatherDisplay:10.37,2013-08-09 12:26:00,
2013-08-09 07:31:00,78.4,76.8,29.86,SSE,165,0.0,0.0,95,0.00,CLR,SKC,0.00,72.0,WeatherDisplay:10.37,2013-08-09 12:31:00,
2013-08-09 07:36:00,78.6,77.0,29.86,SSE,165,1.2,0.0,95,0.00,CLR,SKC,0.00,77.0,WeatherDisplay:10.37,2013-08-09 12:36:00,
2013-08-09 07:41:00,78.8,77.2,29.87,SSE,166,0.0,0.0,95,0.00,CLR,SKC,0.00,77.0,WeatherDisplay:10.37,2013-08-09 12:41:00,
2013-08-09 07:46:00,78.9,77.3,29.87,SSE,167,1.2,1.2,95,0.00,CLR,SKC,0.00,74.0,WeatherDisplay:10.37,2013-08-09 12:46:00,
2013-08-09 07:51:00,79.0,77.4,29.87,SSE,167,1.2,1.2,95,0.00,CLR,SKC,0.00,63.0,WeatherDisplay:10.37,2013-08-09 12:51:00,
2013-08-09 07:56:00,79.2,77.6,29.87,South,173,1.2,1.2,95,0.00,CLR,SKC,0.00,56.0,WeatherDisplay:10.37,2013-08-09 12:56:00,
2013-08-09 08:01:00,79.5,77.9,29.87,South,173,0.0,0.0,95,0.00,CLR,SKC,0.00,58.0,WeatherDisplay:10.37,2013-08-09 13:01:00,
2013-08-09 08:06:00,79.7,77.8,29.87,South,178,1.2,1.2,94,0.00,CLR,SKC,0.00,62.0,WeatherDisplay:10.37,2013-08-09 13:06:00,
2013-08-09 08:11:00,79.9,78.0,29.88,SSE,167,0.0,0.0,94,0.00,CLR,SKC,0.00,74.0,WeatherDisplay:10.37,2013-08-09 13:11:00,
2013-08-09 08:16:00,80.3,78.4,29.88,SSE,167,0.0,0.0,94,0.00,CLR,SKC,0.00,111.0,WeatherDisplay:10.37,2013-08-09 13:16:00,
2013-08-09 08:21:00,80.5,78.3,29.88,SSE,163,2.0,2.0,93,0.00,CLR,SKC,0.00,169.0,WeatherDisplay:10.37,2013-08-09 13:21:00,
2013-08-09 08:26:00,80.9,78.4,29.88,South,184,1.2,1.2,92,0.00,CLR,SKC,0.00,229.0,WeatherDisplay:10.37,2013-08-09 13:26:00,
2013-08-09 08:31:00,81.2,78.3,29.88,South,183,0.0,0.0,91,0.00,CLR,SKC,0.00,276.0,WeatherDisplay:10.37,2013-08-09 13:31:00,
2013-08-09 08:36:00,81.7,78.8,29.88,South,183,0.0,0.0,91,0.00,CLR,SKC,0.00,301.0,WeatherDisplay:10.37,2013-08-09 13:36:00,
2013-08-09 08:41:00,82.1,78.9,29.89,SSW,200,2.3,0.0,90,0.00,CLR,SKC,0.00,318.0,WeatherDisplay:10.37,2013-08-09 13:41:00,
2013-08-09 08:46:00,82.4,78.5,29.89,South,184,1.2,1.2,88,0.00,CLR,SKC,0.00,336.0,WeatherDisplay:10.37,2013-08-09 13:46:00,
2013-08-09 08:51:00,82.5,78.2,29.89,SSW,205,0.0,0.0,87,0.00,CLR,SKC,0.00,352.0,WeatherDisplay:10.37,2013-08-09 13:51:00,
2013-08-09 08:56:00,82.7,78.1,29.89,South,177,3.0,3.0,86,0.00,CLR,SKC,0.00,367.0,WeatherDisplay:10.37,2013-08-09 13:56:00,
2013-08-09 09:01:00,82.8,77.8,29.89,SW,232,1.2,1.2,85,0.00,CLR,SKC,0.00,383.0,WeatherDisplay:10.37,2013-08-09 14:01:00,
2013-08-09 09:06:00,83.0,77.7,29.89,SW,227,2.3,2.3,84,0.00,CLR,SKC,0.00,403.0,WeatherDisplay:10.37,2013-08-09 14:06:00,
2013-08-09 09:11:00,83.0,77.3,29.90,WSW,254,2.3,2.3,83,0.00,CLR,SKC,0.00,420.0,WeatherDisplay:10.37,2013-08-09 14:11:00,
2013-08-09 09:16:00,83.2,77.9,29.90,WSW,256,1.2,1.2,84,0.00,CLR,SKC,0.00,139.0,WeatherDisplay:10.37,2013-08-09 14:16:00,
2013-08-09 09:21:00,83.3,77.6,29.90,SW,232,2.3,2.3,83,0.00,CLR,SKC,0.00,515.0,WeatherDisplay:10.37,2013-08-09 14:21:00,
2013-08-09 09:26:00,83.2,77.1,29.90,WSW,247,3.5,3.5,82,0.00,CLR,SKC,0.00,571.0,WeatherDisplay:10.37,2013-08-09 14:26:00,
2013-08-09 09:31:00,83.3,77.6,29.90,WSW,246,3.5,3.5,83,0.00,CLR,SKC,0.00,601.0,WeatherDisplay:10.37,2013-08-09 14:31:00,
2013-08-09 09:36:00,83.6,77.9,29.90,WSW,257,2.3,2.3,83,0.00,CLR,SKC,0.00,596.0,WeatherDisplay:10.37,2013-08-09 14:36:00,
2013-08-09 09:41:00,83.6,77.5,29.90,WSW,248,5.8,5.8,82,0.00,CLR,SKC,0.00,592.0,WeatherDisplay:10.37,2013-08-09 14:41:00,
2013-08-09 09:46:00,83.6,77.5,29.90,WSW,244,4.0,4.0,82,0.00,CLR,SKC,0.00,635.0,WeatherDisplay:10.37,2013-08-09 14:46:00,
2013-08-09 09:51:00,83.7,77.2,29.90,WSW,254,5.8,5.8,81,0.00,CLR,SKC,0.00,638.0,WeatherDisplay:10.37,2013-08-09 14:51:00,
2013-08-09 09:56:00,83.0,76.9,29.90,West,265,6.9,6.9,82,0.00,CLR,SKC,0.00,656.0,WeatherDisplay:10.37,2013-08-09 14:56:00,
2013-08-09 10:01:00,82.5,76.8,29.90,West,271,7.0,7.0,83,0.00,CLR,SKC,0.00,703.0,WeatherDisplay:10.37,2013-08-09 15:01:00,
2013-08-09 10:06:00,82.2,76.5,29.90,West,264,6.9,6.9,83,0.00,CLR,SKC,0.00,758.0,WeatherDisplay:10.37,2013-08-09 15:06:00,
2013-08-09 10:11:00,82.1,76.4,29.90,West,281,4.6,4.6,83,0.00,CLR,SKC,0.00,687.0,WeatherDisplay:10.37,2013-08-09 15:11:00,
2013-08-09 10:16:00,82.1,76.8,29.90,West,263,6.9,6.9,84,0.00,CLR,SKC,0.00,359.0,WeatherDisplay:10.37,2013-08-09 15:16:00,
2013-08-09 10:21:00,82.4,76.7,29.90,WSW,257,3.5,3.5,83,0.00,CLR,SKC,0.00,260.0,WeatherDisplay:10.37,2013-08-09 15:21:00,
2013-08-09 10:26:00,82.8,76.7,29.90,WSW,252,3.5,3.5,82,0.00,CLR,SKC,0.00,520.0,WeatherDisplay:10.37,2013-08-09 15:26:00,
2013-08-09 10:31:00,83.0,76.9,29.90,West,261,3.5,3.5,82,0.00,CLR,SKC,0.00,766.0,WeatherDisplay:10.37,2013-08-09 15:31:00,
2013-08-09 10:36:00,83.0,76.6,29.90,West,267,4.0,4.0,81,0.00,CLR,SKC,0.00,717.0,WeatherDisplay:10.37,2013-08-09 15:36:00,
2013-08-09 10:41:00,82.9,76.5,29.90,West,269,3.5,3.5,81,0.00,CLR,SKC,0.00,729.0,WeatherDisplay:10.37,2013-08-09 15:41:00,
2013-08-09 10:46:00,83.0,76.9,29.90,West,269,0.0,0.0,82,0.00,CLR,SKC,0.00,742.0,WeatherDisplay:10.37,2013-08-09 15:46:00,
2013-08-09 10:51:00,83.1,76.7,29.90,West,269,3.5,0.0,81,0.00,CLR,SKC,0.00,752.0,WeatherDisplay:10.37,2013-08-09 15:51:00,
2013-08-09 10:56:00,83.3,76.9,29.90,WSW,238,3.5,3.5,81,0.00,CLR,SKC,0.00,747.0,WeatherDisplay:10.37,2013-08-09 15:56:00,
2013-08-09 11:01:00,83.8,76.6,29.90,SE,132,5.0,5.0,79,0.00,CLR,SKC,0.00,765.0,WeatherDisplay:10.37,2013-08-09 16:01:00,
2013-08-09 11:06:00,84.7,76.3,29.90,ESE,114,8.1,8.1,76,0.00,CLR,SKC,0.00,761.0,WeatherDisplay:10.37,2013-08-09 16:06:00,
2013-08-09 11:11:00,85.1,76.3,29.90,ESE,109,6.0,6.0,75,0.00,CLR,SKC,0.00,766.0,WeatherDisplay:10.37,2013-08-09 16:11:00,
2013-08-09 11:16:00,85.6,75.5,29.90,SE,124,9.2,9.2,72,0.00,CLR,SKC,0.00,780.0,WeatherDisplay:10.37,2013-08-09 16:16:00,
2013-08-09 11:21:00,86.5,76.0,29.90,SE,138,3.5,3.5,71,0.00,CLR,SKC,0.00,786.0,WeatherDisplay:10.37,2013-08-09 16:21:00,
2013-08-09 11:26:00,86.7,75.3,29.90,SE,126,5.8,5.8,69,0.00,CLR,SKC,0.00,793.0,WeatherDisplay:10.37,2013-08-09 16:26:00,
2013-08-09 11:31:00,86.5,75.1,29.90,ESE,106,5.8,5.8,69,0.00,CLR,SKC,0.00,803.0,WeatherDisplay:10.37,2013-08-09 16:31:00,
2013-08-09 11:36:00,86.3,74.9,29.90,ESE,116,6.9,6.9,69,0.00,CLR,SKC,0.00,814.0,WeatherDisplay:10.37,2013-08-09 16:36:00,
2013-08-09 11:41:00,85.9,74.5,29.90,SE,131,8.1,8.1,69,0.00,CLR,SKC,0.00,824.0,WeatherDisplay:10.37,2013-08-09 16:41:00,
2013-08-09 11:46:00,86.2,74.8,29.90,South,185,9.2,9.2,69,0.00,CLR,SKC,0.00,830.0,WeatherDisplay:10.37,2013-08-09 16:46:00,
2013-08-09 11:51:00,86.2,74.8,29.90,SSE,155,5.8,5.8,69,0.00,CLR,SKC,0.00,835.0,WeatherDisplay:10.37,2013-08-09 16:51:00,
2013-08-09 11:56:00,86.8,74.5,29.91,SE,140,5.8,5.8,67,0.00,CLR,SKC,0.00,842.0,WeatherDisplay:10.37,2013-08-09 16:56:00,
2013-08-09 12:01:00,87.5,75.6,29.91,ESE,121,3.5,4.4,68,0.00,CLR,SKC,0.00,851.0,WeatherDisplay:10.37,2013-08-09 17:01:00,
2013-08-09 12:06:00,87.4,76.0,29.91,ESE,111,8.1,8.1,69,0.00,CLR,SKC,0.00,856.0,WeatherDisplay:10.37,2013-08-09 17:06:00,
2013-08-09 12:11:00,87.4,75.5,29.90,ESE,113,5.8,5.8,68,0.00,CLR,SKC,0.00,868.0,WeatherDisplay:10.37,2013-08-09 17:11:00,
2013-08-09 12:16:00,87.1,75.7,29.90,SSE,147,5.8,5.8,69,0.00,CLR,SKC,0.00,877.0,WeatherDisplay:10.37,2013-08-09 17:16:00,
2013-08-09 12:21:00,86.4,74.6,29.90,East,86,10.4,10.4,68,0.00,CLR,SKC,0.00,877.0,WeatherDisplay:10.37,2013-08-09 17:21:00,
2013-08-09 12:26:00,85.5,75.0,29.90,ESE,116,9.2,9.2,71,0.00,CLR,SKC,0.00,882.0,WeatherDisplay:10.37,2013-08-09 17:26:00,
2013-08-09 12:31:00,85.3,74.8,29.90,ENE,78,5.8,5.8,71,0.00,CLR,SKC,0.00,888.0,WeatherDisplay:10.37,2013-08-09 17:31:00,
2013-08-09 12:36:00,85.3,75.2,29.90,East,94,9.2,9.2,72,0.00,CLR,SKC,0.00,891.0,WeatherDisplay:10.37,2013-08-09 17:36:00,
2013-08-09 12:41:00,85.5,75.4,29.90,ESE,107,5.8,5.8,72,0.00,CLR,SKC,0.00,895.0,WeatherDisplay:10.37,2013-08-09 17:41:00,
2013-08-09 12:46:00,85.3,76.1,29.90,East,87,9.2,9.2,74,0.00,CLR,SKC,0.00,896.0,WeatherDisplay:10.37,2013-08-09 17:46:00,
2013-08-09 12:51:00,85.0,75.8,29.90,East,82,11.0,11.0,74,0.00,CLR,SKC,0.00,900.0,WeatherDisplay:10.37,2013-08-09 17:51:00,
2013-08-09 12:56:00,84.9,75.7,29.90,East,89,11.0,11.0,74,0.00,CLR,SKC,0.00,904.0,WeatherDisplay:10.37,2013-08-09 17:56:00,
2013-08-09 13:01:00,84.8,76.4,29.90,East,96,11.0,11.0,76,0.00,CLR,SKC,0.00,904.0,WeatherDisplay:10.37,2013-08-09 18:01:00,
2013-08-09 13:06:00,84.4,75.6,29.90,East,90,6.9,6.9,75,0.00,CLR,SKC,0.00,907.0,WeatherDisplay:10.37,2013-08-09 18:06:00,
2013-08-09 13:11:00,84.4,76.0,29.89,East,92,9.2,9.2,76,0.00,CLR,SKC,0.00,909.0,WeatherDisplay:10.37,2013-08-09 18:11:00,
2013-08-09 13:16:00,84.1,75.7,29.89,NE,53,8.1,8.1,76,0.00,CLR,SKC,0.00,904.0,WeatherDisplay:10.37,2013-08-09 18:16:00,
2013-08-09 13:21:00,84.0,76.0,29.89,ESE,116,10.4,10.4,77,0.00,CLR,SKC,0.00,911.0,WeatherDisplay:10.37,2013-08-09 18:21:00,
2013-08-09 13:26:00,84.3,76.3,29.89,ESE,113,6.9,6.9,77,0.00,CLR,SKC,0.00,911.0,WeatherDisplay:10.37,2013-08-09 18:26:00,
2013-08-09 13:31:00,84.3,76.3,29.89,East,90,6.9,6.9,77,0.00,CLR,SKC,0.00,911.0,WeatherDisplay:10.37,2013-08-09 18:31:00,
2013-08-09 13:36:00,84.1,76.1,29.89,ENE,74,6.9,6.9,77,0.00,CLR,SKC,0.00,912.0,WeatherDisplay:10.37,2013-08-09 18:36:00,
2013-08-09 13:41:00,83.9,76.3,29.88,East,84,9.2,9.2,78,0.00,CLR,SKC,0.00,909.0,WeatherDisplay:10.37,2013-08-09 18:41:00,
2013-08-09 13:46:00,83.8,76.6,29.88,ENE,72,8.1,8.1,79,0.00,CLR,SKC,0.00,907.0,WeatherDisplay:10.37,2013-08-09 18:46:00,
2013-08-09 13:51:00,83.8,76.2,29.88,East,83,10.4,10.4,78,0.00,CLR,SKC,0.00,905.0,WeatherDisplay:10.37,2013-08-09 18:51:00,
2013-08-09 13:56:00,83.8,76.6,29.89,East,82,10.4,10.4,79,0.00,CLR,SKC,0.00,900.0,WeatherDisplay:10.37,2013-08-09 18:56:00,
2013-08-09 14:01:00,83.7,76.9,29.89,East,88,10.4,10.4,80,0.00,CLR,SKC,0.00,900.0,WeatherDisplay:10.37,2013-08-09 19:01:00,
2013-08-09 14:06:00,83.9,76.7,29.89,East,90,8.1,8.1,79,0.00,CLR,SKC,0.00,898.0,WeatherDisplay:10.37,2013-08-09 19:06:00,
2013-08-09 14:11:00,84.3,76.7,29.88,ESE,108,10.4,10.4,78,0.00,CLR,SKC,0.00,895.0,WeatherDisplay:10.37,2013-08-09 19:11:00,
2013-08-09 14:16:00,84.5,76.5,29.88,East,92,10.4,10.4,77,0.00,CLR,SKC,0.00,888.0,WeatherDisplay:10.37,2013-08-09 19:16:00,
2013-08-09 14:21:00,84.4,76.4,29.88,East,90,10.4,10.4,77,0.00,CLR,SKC,0.00,886.0,WeatherDisplay:10.37,2013-08-09 19:21:00,
2013-08-09 14:26:00,84.7,76.7,29.88,East,87,8.1,8.1,77,0.00,CLR,SKC,0.00,881.0,WeatherDisplay:10.37,2013-08-09 19:26:00,
2013-08-09 14:31:00,84.6,77.0,29.88,ESE,104,10.4,10.4,78,0.00,CLR,SKC,0.00,879.0,WeatherDisplay:10.37,2013-08-09 19:31:00,
2013-08-09 14:36:00,84.7,76.7,29.88,ESE,104,11.5,11.5,77,0.00,CLR,SKC,0.00,872.0,WeatherDisplay:10.37,2013-08-09 19:36:00,
2013-08-09 14:41:00,84.6,76.2,29.88,ESE,107,12.7,12.7,76,0.00,CLR,SKC,0.00,867.0,WeatherDisplay:10.37,2013-08-09 19:41:00,
2013-08-09 14:46:00,84.4,76.8,29.88,East,89,11.5,11.5,78,0.00,CLR,SKC,0.00,856.0,WeatherDisplay:10.37,2013-08-09 19:46:00,
2013-08-09 14:51:00,83.9,76.7,29.88,ESE,103,12.7,12.7,79,0.00,CLR,SKC,0.00,853.0,WeatherDisplay:10.37,2013-08-09 19:51:00,
2013-08-09 14:56:00,83.8,76.6,29.88,East,93,12.7,12.7,79,0.00,CLR,SKC,0.00,846.0,WeatherDisplay:10.37,2013-08-09 19:56:00,
2013-08-09 15:01:00,83.8,76.6,29.88,East,88,11.5,11.5,79,0.00,CLR,SKC,0.00,837.0,WeatherDisplay:10.37,2013-08-09 20:01:00,
2013-08-09 15:06:00,83.7,76.9,29.88,East,100,11.5,11.5,80,0.00,CLR,SKC,0.00,828.0,WeatherDisplay:10.37,2013-08-09 20:06:00,
2013-08-09 15:11:00,84.0,77.2,29.87,East,88,12.0,12.0,80,0.00,CLR,SKC,0.00,821.0,WeatherDisplay:10.37,2013-08-09 20:11:00,
2013-08-09 15:16:00,83.9,76.7,29.87,East,98,11.5,11.5,79,0.00,CLR,SKC,0.00,812.0,WeatherDisplay:10.37,2013-08-09 20:16:00,
2013-08-09 15:21:00,83.9,76.7,29.87,ESE,114,12.7,12.7,79,0.00,CLR,SKC,0.00,803.0,WeatherDisplay:10.37,2013-08-09 20:21:00,
2013-08-09 15:26:00,83.9,76.7,29.87,ESE,105,12.7,12.7,79,0.00,CLR,SKC,0.00,793.0,WeatherDisplay:10.37,2013-08-09 20:26:00,
2013-08-09 15:31:00,83.9,76.7,29.87,ESE,105,15.0,15.0,79,0.00,CLR,SKC,0.00,784.0,WeatherDisplay:10.37,2013-08-09 20:31:00,
2013-08-09 15:36:00,84.1,76.9,29.87,East,92,11.5,11.5,79,0.00,CLR,SKC,0.00,775.0,WeatherDisplay:10.37,2013-08-09 20:36:00,
2013-08-09 15:41:00,84.1,76.9,29.86,ENE,75,12.7,12.7,79,0.00,CLR,SKC,0.00,763.0,WeatherDisplay:10.37,2013-08-09 20:41:00,
2013-08-09 15:46:00,84.3,77.1,29.86,East,100,11.5,11.5,79,0.00,CLR,SKC,0.00,751.0,WeatherDisplay:10.37,2013-08-09 20:46:00,
2013-08-09 15:51:00,84.4,77.2,29.86,East,82,11.5,11.5,79,0.00,CLR,SKC,0.00,740.0,WeatherDisplay:10.37,2013-08-09 20:51:00,
2013-08-09 15:56:00,84.4,77.2,29.86,East,96,15.0,15.0,79,0.00,CLR,SKC,0.00,729.0,WeatherDisplay:10.37,2013-08-09 20:56:00,
2013-08-09 16:01:00,84.5,77.3,29.86,East,86,12.7,12.7,79,0.00,CLR,SKC,0.00,719.0,WeatherDisplay:10.37,2013-08-09 21:01:00,
2013-08-09 16:06:00,84.2,77.4,29.86,ENE,59,14.0,14.0,80,0.00,CLR,SKC,0.00,703.0,WeatherDisplay:10.37,2013-08-09 21:06:00,
2013-08-09 16:11:00,84.4,77.6,29.86,East,89,12.0,12.0,80,0.00,CLR,SKC,0.00,691.0,WeatherDisplay:10.37,2013-08-09 21:11:00,
2013-08-09 16:16:00,84.6,77.7,29.86,ESE,121,12.7,12.7,80,0.00,CLR,SKC,0.00,680.0,WeatherDisplay:10.37,2013-08-09 21:16:00,
2013-08-09 16:21:00,84.6,77.4,29.86,ESE,104,11.5,11.5,79,0.00,CLR,SKC,0.00,668.0,WeatherDisplay:10.37,2013-08-09 21:21:00,
2013-08-09 16:26:00,84.7,77.5,29.85,ENE,78,11.5,11.5,79,0.00,CLR,SKC,0.00,654.0,WeatherDisplay:10.37,2013-08-09 21:26:00,
2013-08-09 16:31:00,84.1,77.3,29.85,ESE,103,16.1,16.1,80,0.00,CLR,SKC,0.00,642.0,WeatherDisplay:10.37,2013-08-09 21:31:00,
2013-08-09 16:36:00,84.1,77.3,29.85,East,98,12.7,12.7,80,0.00,CLR,SKC,0.00,626.0,WeatherDisplay:10.37,2013-08-09 21:36:00,
2013-08-09 16:41:00,84.2,77.7,29.85,East,94,11.5,11.5,81,0.00,CLR,SKC,0.00,612.0,WeatherDisplay:10.37,2013-08-09 21:41:00,
2013-08-09 16:46:00,84.3,77.5,29.85,East,89,15.0,15.0,80,0.00,CLR,SKC,0.00,596.0,WeatherDisplay:10.37,2013-08-09 21:46:00,
2013-08-09 16:51:00,83.9,77.4,29.85,East,92,11.5,11.5,81,0.00,CLR,SKC,0.00,582.0,WeatherDisplay:10.37,2013-08-09 21:51:00,
2013-08-09 16:56:00,83.8,78.1,29.85,ENE,78,11.5,11.5,83,0.00,CLR,SKC,0.00,568.0,WeatherDisplay:10.37,2013-08-09 21:56:00,
2013-08-09 17:01:00,83.6,77.9,29.85,ENE,63,12.7,12.7,83,0.00,CLR,SKC,0.00,550.0,WeatherDisplay:10.37,2013-08-09 22:01:00,
2013-08-09 17:06:00,83.5,78.2,29.85,ENE,71,12.7,12.7,84,0.00,CLR,SKC,0.00,534.0,WeatherDisplay:10.37,2013-08-09 22:06:00,
2013-08-09 17:11:00,83.2,78.2,29.85,ENE,76,17.3,17.3,85,0.00,CLR,SKC,0.00,519.0,WeatherDisplay:10.37,2013-08-09 22:11:00,
2013-08-09 17:16:00,82.9,78.3,29.85,ESE,108,16.1,16.1,86,0.00,CLR,SKC,0.00,504.0,WeatherDisplay:10.37,2013-08-09 22:16:00,
2013-08-09 17:21:00,83.1,78.5,29.85,East,101,12.7,12.7,86,0.00,CLR,SKC,0.00,489.0,WeatherDisplay:10.37,2013-08-09 22:21:00,
2013-08-09 17:26:00,83.1,78.8,29.84,ESE,104,14.0,14.0,87,0.00,CLR,SKC,0.00,475.0,WeatherDisplay:10.37,2013-08-09 22:26:00,
2013-08-09 17:31:00,82.9,78.6,29.84,East,98,15.0,15.0,87,0.00,CLR,SKC,0.00,457.0,WeatherDisplay:10.37,2013-08-09 22:31:00,
2013-08-09 17:36:00,83.0,79.1,29.84,ENE,65,12.7,12.7,88,0.00,CLR,SKC,0.00,441.0,WeatherDisplay:10.37,2013-08-09 22:36:00,
2013-08-09 17:41:00,83.4,79.5,29.84,ENE,73,11.5,11.5,88,0.00,CLR,SKC,0.00,424.0,WeatherDisplay:10.37,2013-08-09 22:41:00,
2013-08-09 17:46:00,83.4,79.5,29.84,East,100,10.4,10.4,88,0.00,CLR,SKC,0.00,410.0,WeatherDisplay:10.37,2013-08-09 22:46:00,
2013-08-09 17:51:00,83.5,79.6,29.84,ENE,64,11.5,11.5,88,0.00,CLR,SKC,0.00,390.0,WeatherDisplay:10.37,2013-08-09 22:51:00,
2013-08-09 17:56:00,83.6,79.7,29.84,East,94,10.4,10.4,88,0.00,CLR,SKC,0.00,374.0,WeatherDisplay:10.37,2013-08-09 22:56:00,
2013-08-09 18:01:00,83.7,79.8,29.84,East,91,11.5,11.5,88,0.00,CLR,SKC,0.00,359.0,WeatherDisplay:10.37,2013-08-09 23:01:00,
2013-08-09 18:06:00,83.8,79.9,29.84,ESE,103,12.7,12.7,88,0.00,CLR,SKC,0.00,343.0,WeatherDisplay:10.37,2013-08-09 23:06:00,
2013-08-09 18:11:00,83.8,79.9,29.84,ESE,103,11.5,11.5,88,0.00,CLR,SKC,0.00,327.0,WeatherDisplay:10.37,2013-08-09 23:11:00,
2013-08-09 18:16:00,83.5,79.2,29.84,ESE,106,12.7,12.7,87,0.00,CLR,SKC,0.00,313.0,WeatherDisplay:10.37,2013-08-09 23:16:00,
2013-08-09 18:21:00,83.4,79.5,29.84,East,84,11.5,11.5,88,0.00,CLR,SKC,0.00,295.0,WeatherDisplay:10.37,2013-08-09 23:21:00,
2013-08-09 18:26:00,83.5,79.2,29.84,East,91,15.0,15.0,87,0.00,CLR,SKC,0.00,279.0,WeatherDisplay:10.37,2013-08-09 23:26:00,
2013-08-09 18:31:00,83.5,79.6,29.84,ESE,113,11.5,11.5,88,0.00,CLR,SKC,0.00,264.0,WeatherDisplay:10.37,2013-08-09 23:31:00,
2013-08-09 18:36:00,83.7,79.8,29.84,East,93,11.5,11.5,88,0.00,CLR,SKC,0.00,248.0,WeatherDisplay:10.37,2013-08-09 23:36:00,
2013-08-09 18:41:00,83.6,79.3,29.84,East,83,15.0,15.0,87,0.00,CLR,SKC,0.00,232.0,WeatherDisplay:10.37,2013-08-09 23:41:00,
2013-08-09 18:46:00,83.7,79.8,29.84,East,86,11.5,11.5,88,0.00,CLR,SKC,0.00,216.0,WeatherDisplay:10.37,2013-08-09 23:46:00,
2013-08-09 18:51:00,83.6,79.7,29.84,East,86,13.8,13.8,88,0.00,CLR,SKC,0.00,200.0,WeatherDisplay:10.37,2013-08-09 23:51:00,
2013-08-09 18:56:00,83.6,79.3,29.84,East,100,12.7,12.7,87,0.00,CLR,SKC,0.00,186.0,WeatherDisplay:10.37,2013-08-09 23:56:00,
2013-08-09 19:01:00,83.4,79.5,29.84,East,101,11.5,11.5,88,0.00,CLR,SKC,0.00,171.0,WeatherDisplay:10.37,2013-08-10 00:01:00,
2013-08-09 19:06:00,83.4,79.5,29.84,SE,124,11.0,11.0,88,0.00,CLR,SKC,0.00,156.0,WeatherDisplay:10.37,2013-08-10 00:06:00,
2013-08-09 19:11:00,83.3,79.4,29.84,ENE,72,13.8,13.8,88,0.00,CLR,SKC,0.00,141.0,WeatherDisplay:10.37,2013-08-10 00:11:00,
2013-08-09 19:16:00,83.4,79.5,29.84,SE,128,9.0,9.0,88,0.00,CLR,SKC,0.00,125.0,WeatherDisplay:10.37,2013-08-10 00:16:00,
2013-08-09 19:21:00,83.2,79.3,29.84,ENE,71,12.7,12.7,88,0.00,CLR,SKC,0.00,105.0,WeatherDisplay:10.37,2013-08-10 00:21:00,
2013-08-09 19:26:00,83.1,79.2,29.84,East,84,10.0,10.0,88,0.00,CLR,SKC,0.00,88.0,WeatherDisplay:10.37,2013-08-10 00:26:00,
2013-08-09 19:31:00,83.0,79.4,29.84,East,92,12.0,12.0,89,0.00,CLR,SKC,0.00,74.0,WeatherDisplay:10.37,2013-08-10 00:31:00,
2013-08-09 19:36:00,82.9,79.3,29.84,East,80,10.4,10.4,89,0.00,CLR,SKC,0.00,60.0,WeatherDisplay:10.37,2013-08-10 00:36:00,
2013-08-09 19:41:00,82.7,79.1,29.85,East,94,8.1,8.1,89,0.00,CLR,SKC,0.00,46.0,WeatherDisplay:10.37,2013-08-10 00:41:00,
2013-08-09 19:46:00,82.7,79.1,29.85,NNE,32,5.8,5.8,89,0.00,CLR,SKC,0.00,35.0,WeatherDisplay:10.37,2013-08-10 00:46:00,
2013-08-09 19:51:00,82.7,79.5,29.85,East,80,11.5,11.5,90,0.00,CLR,SKC,0.00,26.0,WeatherDisplay:10.37,2013-08-10 00:51:00,
2013-08-09 19:56:00,82.7,79.5,29.85,East,90,11.5,11.5,90,0.00,CLR,SKC,0.00,18.0,WeatherDisplay:10.37,2013-08-10 00:56:00,
2013-08-09 20:01:00,82.5,79.3,29.85,East,89,8.1,8.1,90,0.00,CLR,SKC,0.00,12.0,WeatherDisplay:10.37,2013-08-10 01:01:00,
2013-08-09 20:06:00,82.3,79.1,29.85,East,90,10.4,10.4,90,0.00,CLR,SKC,0.00,9.0,WeatherDisplay:10.37,2013-08-10 01:06:00,
2013-08-09 20:11:00,82.1,78.9,29.85,East,100,10.4,10.4,90,0.00,CLR,SKC,0.00,5.0,WeatherDisplay:10.37,2013-08-10 01:11:00,
2013-08-09 20:16:00,82.1,79.2,29.85,East,88,7.0,7.0,91,0.00,CLR,SKC,0.00,0.0,WeatherDisplay:10.37,2013-08-10 01:16:00,
2013-08-09 20:21:00,82.0,79.1,29.85,ENE,66,3.5,3.5,91,0.00,CLR,SKC,0.00,0.0,WeatherDisplay:10.37,2013-08-10 01:21:00,
2013-08-09 20:26:00,82.0,79.1,29.85,ESE,110,7.0,7.0,91,0.00,CLR,SKC,0.00,0.0,WeatherDisplay:10.37,2013-08-10 01:26:00,
2013-08-09 20:31:00,81.9,79.0,29.85,ESE,106,9.2,9.2,91,0.00,CLR,SKC,0.00,0.0,WeatherDisplay:10.37,2013-08-10 01:31:00,
2013-08-09 20:36:00,81.9,79.0,29.85,ESE,115,6.9,6.9,91,0.00,CLR,SKC,0.00,0.0,WeatherDisplay:10.37,2013-08-10 01:36:00,
2013-08-09 20:41:00,81.8,79.2,29.86,East,95,9.2,9.2,92,0.00,CLR,SKC,0.00,0.0,WeatherDisplay:10.37,2013-08-10 01:41:00,
2013-08-09 20:46:00,81.7,79.1,29.86,ESE,115,9.2,9.2,92,0.00,CLR,SKC,0.00,0.0,WeatherDisplay:10.37,2013-08-10 01:46:00,
2013-08-09 20:51:00,81.6,79.0,29.86,SE,126,9.2,9.2,92,0.00,CLR,SKC,0.00,0.0,WeatherDisplay:10.37,2013-08-10 01:51:00,
2013-08-09 20:56:00,81.6,79.0,29.87,SSE,148,6.0,6.0,92,0.00,CLR,SKC,0.00,0.0,WeatherDisplay:10.37,2013-08-10 01:56:00,
2013-08-09 21:01:00,81.5,78.9,29.87,ESE,102,10.4,10.4,92,0.00,CLR,SKC,0.00,0.0,WeatherDisplay:10.37,2013-08-10 02:01:00,
2013-08-09 21:06:00,81.5,78.9,29.87,ESE,113,6.0,6.0,92,0.00,CLR,SKC,0.00,0.0,WeatherDisplay:10.37,2013-08-10 02:06:00,
2013-08-09 21:11:00,81.5,78.9,29.87,ESE,106,9.2,9.2,92,0.00,CLR,SKC,0.00,0.0,WeatherDisplay:10.37,2013-08-10 02:11:00,
2013-08-09 21:16:00,81.5,78.9,29.87,East,86,10.4,10.4,92,0.00,CLR,SKC,0.00,0.0,WeatherDisplay:10.37,2013-08-10 02:16:00,
2013-08-09 21:21:00,81.5,78.9,29.87,ESE,115,6.9,6.9,92,0.00,CLR,SKC,0.00,0.0,WeatherDisplay:10.37,2013-08-10 02:21:00,
2013-08-09 21:26:00,81.5,78.9,29.88,ESE,121,5.0,5.0,92,0.00,CLR,SKC,0.00,0.0,WeatherDisplay:10.37,2013-08-10 02:26:00,
2013-08-09 21:31:00,81.5,78.9,29.88,ESE,111,6.0,6.0,92,0.00,CLR,SKC,0.00,0.0,WeatherDisplay:10.37,2013-08-10 02:31:00,
2013-08-09 21:36:00,81.4,78.9,29.88,East,94,9.2,9.2,92,0.00,CLR,SKC,0.00,0.0,WeatherDisplay:10.37,2013-08-10 02:36:00,
2013-08-09 21:41:00,81.4,78.9,29.88,SE,126,9.2,9.2,92,0.00,CLR,SKC,0.00,0.0,WeatherDisplay:10.37,2013-08-10 02:41:00,
2013-08-09 21:46:00,81.4,78.9,29.88,ESE,108,5.8,5.8,92,0.00,CLR,SKC,0.00,0.0,WeatherDisplay:10.37,2013-08-10 02:46:00,
2013-08-09 21:51:00,81.4,78.9,29.88,ESE,121,7.0,7.0,92,0.00,CLR,SKC,0.00,0.0,WeatherDisplay:10.37,2013-08-10 02:51:00,
2013-08-09 21:56:00,81.4,78.9,29.89,ESE,111,7.0,7.0,92,0.00,CLR,SKC,0.00,0.0,WeatherDisplay:10.37,2013-08-10 02:56:00,
2013-08-09 22:01:00,81.4,79.2,29.89,East,98,5.8,5.8,93,0.00,CLR,SKC,0.00,0.0,WeatherDisplay:10.37,2013-08-10 03:01:00,
2013-08-09 22:06:00,81.4,79.2,29.89,East,96,6.0,6.0,93,0.00,CLR,SKC,0.00,0.0,WeatherDisplay:10.37,2013-08-10 03:06:00,
2013-08-09 22:11:00,81.4,79.2,29.90,SE,130,6.9,6.9,93,0.00,CLR,SKC,0.00,0.0,WeatherDisplay:10.37,2013-08-10 03:11:00,
2013-08-09 22:16:00,81.3,79.1,29.90,ESE,105,7.0,7.0,93,0.00,CLR,SKC,0.00,0.0,WeatherDisplay:10.37,2013-08-10 03:16:00,
2013-08-09 22:21:00,81.3,79.1,29.90,East,84,5.8,5.8,93,0.00,CLR,SKC,0.00,0.0,WeatherDisplay:10.37,2013-08-10 03:21:00,
2013-08-09 22:26:00,81.3,79.1,29.91,ESE,120,5.8,5.8,93,0.00,CLR,SKC,0.00,0.0,WeatherDisplay:10.37,2013-08-10 03:26:00,
2013-08-09 22:31:00,81.2,79.0,29.91,East,99,4.6,4.6,93,0.00,CLR,SKC,0.00,0.0,WeatherDisplay:10.37,2013-08-10 03:31:00,
2013-08-09 22:36:00,81.2,79.0,29.91,East,81,6.0,6.0,93,0.00,CLR,SKC,0.00,0.0,WeatherDisplay:10.37,2013-08-10 03:36:00,
2013-08-09 22:41:00,81.2,79.0,29.91,ESE,116,5.0,5.0,93,0.00,CLR,SKC,0.00,0.0,WeatherDisplay:10.37,2013-08-10 03:41:00,
2013-08-09 22:46:00,81.1,78.9,29.91,ESE,105,5.8,5.8,93,0.00,CLR,SKC,0.00,0.0,WeatherDisplay:10.37,2013-08-10 03:46:00,
2013-08-09 22:51:00,81.1,78.9,29.91,ESE,104,5.0,5.0,93,0.00,CLR,SKC,0.00,0.0,WeatherDisplay:10.37,2013-08-10 03:51:00,
2013-08-09 22:56:00,81.1,78.9,29.92,ESE,103,4.6,4.6,93,0.00,CLR,SKC,0.00,0.0,WeatherDisplay:10.37,2013-08-10 03:56:00,
2013-08-09 23:01:00,81.1,79.2,29.92,ESE,115,5.8,5.8,94,0.00,CLR,SKC,0.00,0.0,WeatherDisplay:10.37,2013-08-10 04:01:00,
2013-08-09 23:06:00,81.1,79.2,29.92,ESE,102,4.6,4.6,94,0.00,CLR,SKC,0.00,0.0,WeatherDisplay:10.37,2013-08-10 04:06:00,
2013-08-09 23:11:00,81.0,79.1,29.92,East,90,4.6,4.6,94,0.00,CLR,SKC,0.00,0.0,WeatherDisplay:10.37,2013-08-10 04:11:00,
2013-08-09 23:16:00,81.1,79.2,29.92,ESE,109,3.5,3.5,94,0.00,CLR,SKC,0.00,0.0,WeatherDisplay:10.37,2013-08-10 04:16:00,
2013-08-09 23:21:00,81.1,79.2,29.92,ESE,104,4.0,4.0,94,0.00,CLR,SKC,0.00,0.0,WeatherDisplay:10.37,2013-08-10 04:21:00,
2013-08-09 23:26:00,81.1,79.2,29.92,ESE,119,3.5,3.5,94,0.00,CLR,SKC,0.00,0.0,WeatherDisplay:10.37,2013-08-10 04:26:00,
2013-08-09 23:31:00,81.1,79.2,29.92,ESE,105,3.5,3.5,94,0.00,CLR,SKC,0.00,0.0,WeatherDisplay:10.37,2013-08-10 04:31:00,
2013-08-09 23:36:00,81.2,79.3,29.92,East,93,3.5,3.5,94,0.00,CLR,SKC,0.00,0.0,WeatherDisplay:10.37,2013-08-10 04:36:00,
2013-08-09 23:41:00,81.2,79.3,29.92,East,101,2.3,2.3,94,0.00,CLR,SKC,0.00,0.0,WeatherDisplay:10.37,2013-08-10 04:41:00,
2013-08-09 23:46:00,81.3,79.4,29.92,ESE,115,3.5,3.5,94,0.00,CLR,SKC,0.00,0.0,WeatherDisplay:10.37,2013-08-10 04:46:00,
2013-08-09 23:51:00,81.4,79.5,29.92,East,81,3.5,3.5,94,0.00,CLR,SKC,0.00,0.0,WeatherDisplay:10.37,2013-08-10 04:51:00,
2013-08-09 23:56:00,81.3,79.4,29.92,ESE,117,3.5,3.5,94,0.00,CLR,SKC,0.00,0.0,WeatherDisplay:10.37,2013-08-10 04:56:00,